Location: Warner Observatory
(35.1353°N, 89.5455°W)
Time: 21:15:52
(UTC-05:00)

Amateur Radio Satellites - All Passes

Search period start: 16 April 2014 20:45
Search period end: 17 April 2014 20:45
Location: Warner Observatory, 35.1353°N, 89.5455°W

Satellite Date Start Highest point End Downlink Frequencies (MHz)
Time Altitude Azimuth
HO-68 16 Apr 20:55:14 21:02:09 56° 70° (ENE) 21:09:06 435.675 MHz FM
Saudisat 1A 16 Apr 21:02:18 21:06:39 56° 58° (ENE) 21:10:55 436.775 MHz
Oscar 11 16 Apr 21:48:21 21:52:34 57° 75° (ENE) 21:56:48 145.825 FM, Beacon 2401.500 USB
ISS 16 Apr 22:06:18 22:07:43 12° 25° (NNE) 22:09:07 145.800 FM
MaSat-1 16 Apr 22:35:43 22:38:46 42° 294° (WNW) 22:41:25 437.345 MHz
Saudisat 1A 16 Apr 22:44:10 22:45:43 12° 253° (WSW) 22:47:15 436.775 MHz
HO-68 16 Apr 22:44:40 22:50:08 24° 265° (W) 22:55:38 435.675 MHz FM
FUNcube-1 16 Apr 23:05:46 23:09:58 58° 259° (W) 23:14:06 145.950 - 145.970 MHz USB
ISS 16 Apr 23:41:34 23:44:56 79° 42° (NE) 23:48:17 145.800 FM
PCSat 16 Apr 23:56:17 23:58:35 13° 103° (ESE) 00:00:52 145.825 MHz
SO-50 17 Apr 00:42:47 00:46:27 22° 51° (NE) 00:50:07 436.795 FM
Sapphire 17 Apr 00:51:09 00:56:13 42° 110° (ESE) 01:01:18 437.095 MHz 1200 baud AX-25 AFSK
Oscar 19 17 Apr 01:23:38 01:26:12 14° 92° (E) 01:28:45 437.125 CW, 437.150 USB
Oscar 16 17 Apr 01:30:35 01:34:05 18° 94° (E) 01:37:33 437.025 USB, Beacon 2401.1428
PCSat 17 Apr 01:35:57 01:41:19 69° 297° (WNW) 01:46:44 145.825 MHz
OPAL 17 Apr 01:47:24 01:51:00 20° 64° (ENE) 01:54:38 ?
Uribyol 2 17 Apr 02:00:39 02:04:05 18° 94° (E) 02:07:31 436.500 FM
SO-50 17 Apr 02:22:47 02:27:06 38° 246° (WSW) 02:31:27 436.795 FM
KITSAT 1 17 Apr 02:28:37 02:35:30 32° 106° (ESE) 02:42:24 435.175 FM
Sapphire 17 Apr 02:35:27 02:39:46 24° 307° (NW) 02:44:07 437.095 MHz 1200 baud AX-25 AFSK
AO-27 17 Apr 02:38:13 02:43:07 42° 99° (E) 02:47:59 436.795 MHz FM
ITAMSAT 1 17 Apr 02:49:33 02:54:37 54° 101° (E) 02:59:39 435.822 SSB
Oscar 19 17 Apr 03:00:45 03:05:52 59° 286° (WNW) 03:10:57 437.125 CW, 437.150 USB
TMSAT-1 17 Apr 03:06:13 03:09:17 15° 93° (E) 03:12:20 436.925 FM
Oscar 16 17 Apr 03:08:40 03:13:36 46° 288° (WNW) 03:18:32 437.025 USB, Beacon 2401.1428
UOSAT-12 17 Apr 03:21:20 03:25:52 44° 56° (ENE) 03:30:20 437.025 FM, 437.400 FM
OPAL 17 Apr 03:24:52 03:29:33 41° 259° (W) 03:34:19 ?
AO-Echo 17 Apr 03:24:54 03:29:43 81° 284° (WNW) 03:34:24 ?
Uribyol 2 17 Apr 03:38:49 03:43:45 46° 288° (WNW) 03:48:40 436.500 FM
Uosat F 17 Apr 03:43:47 03:45:09 11° 92° (E) 03:46:31 435.120 FM
Gurwin Techsat 1B 17 Apr 03:54:13 03:59:32 70° 102° (ESE) 04:04:48 435.225 FM
AO-27 17 Apr 04:18:33 04:22:18 21° 294° (WNW) 04:26:02 436.795 MHz FM
KITSAT 1 17 Apr 04:22:40 04:30:30 52° 303° (WNW) 04:38:24 435.175 FM
ITAMSAT 1 17 Apr 04:30:31 04:33:37 16° 295° (WNW) 04:36:44 435.822 SSB
TMSAT-1 17 Apr 04:44:20 04:49:29 54° 287° (WNW) 04:54:37 436.925 FM
JAS-1B 17 Apr 04:49:28 04:55:07 67° 102° (ESE) 05:01:00 435.800 - 435.900 CW/SSB
AO-7 17 Apr 05:01:16 05:09:13 48° 101° (ESE) 05:17:09 29.400 - 29.500 MHz
UOSAT-12 17 Apr 05:02:34 05:05:38 17° 251° (WSW) 05:08:40 437.025 FM, 437.400 FM
Uosat F 17 Apr 05:19:23 05:24:21 67° 286° (WNW) 05:29:17 435.120 FM
Gurwin Techsat 1B 17 Apr 05:36:29 05:38:51 13° 297° (WNW) 05:41:13 435.225 FM
STRAND 1 17 Apr 05:59:14 06:03:16 24° 68° (ENE) 06:07:19 ?
RS-15 17 Apr 06:17:34 06:27:31 36° 106° (ESE) 06:37:07 29.354 - 29.394 USB, Beacon 29.352 USB
KITSAT 1 17 Apr 06:25:10 06:28:02 12° 326° (NNW) 06:30:55 435.175 FM
Hamsat 17 Apr 06:36:23 06:40:14 30° 97° (E) 06:44:04 145.90 MHz
JAS-1B 17 Apr 06:42:40 06:45:11 13° 299° (WNW) 06:47:43 435.800 - 435.900 CW/SSB
AO-40 17 Apr 06:45:29 09:44:47 25° 128° (SE) 11:06:58 Beacon 2401.320
AO-7 17 Apr 06:54:27 07:01:42 35° 298° (WNW) 07:08:58 29.400 - 29.500 MHz
JAS-2 17 Apr 07:35:25 07:40:30 40° 100° (E) 07:46:02 435.800 - 435.900 CW/SSB, 435.910 FM
STRAND 1 17 Apr 07:37:37 07:42:15 34° 262° (W) 07:46:53 ?
SO-67 17 Apr 08:09:58 08:13:28 74° 101° (E) 08:16:57 435.3500 MHz FM
Hamsat 17 Apr 08:12:51 08:16:00 20° 291° (WNW) 08:19:09 145.90 MHz
RS-15 17 Apr 08:28:11 08:39:18 58° 305° (NW) 08:50:08 29.354 - 29.394 USB, Beacon 29.352 USB
HO-68 17 Apr 08:31:40 08:32:16 10° 90° (E) 08:32:52 435.675 MHz FM
MaSat-1 17 Apr 08:40:03 08:42:52 31° 249° (WSW) 08:46:09 437.345 MHz
JAS-2 17 Apr 09:21:18 09:25:24 23° 292° (WNW) 09:29:46 435.800 - 435.900 CW/SSB, 435.910 FM
Oscar 11 17 Apr 09:41:00 09:43:08 13° 93° (E) 09:45:16 145.825 FM, Beacon 2401.500 USB
Sapphire 17 Apr 09:43:02 09:46:51 19° 51° (NE) 09:50:38 437.095 MHz 1200 baud AX-25 AFSK
PANSAT 17 Apr 10:03:27 10:06:26 21° 167° (SSE) 10:09:26 not established
Oscar 10/S400 17 Apr 10:05:10 03:08:32 39° 138° (SE) 10:45:26 145.825 - 145.975 CW/USB, Beacon 145.810 USB
HO-68 17 Apr 10:13:39 10:20:52 79° 105° (ESE) 10:28:03 435.675 MHz FM
PCSat 17 Apr 10:27:12 10:32:26 47° 60° (ENE) 10:37:38 145.825 MHz
KITSAT 1 17 Apr 10:27:31 10:29:19 11° 32° (NNE) 10:31:06 435.175 FM
RS-15 17 Apr 10:47:57 10:54:42 17° 333° (NNW) 11:01:26 29.354 - 29.394 USB, Beacon 29.352 USB
FUNcube-1 17 Apr 10:58:17 11:02:07 32° 98° (E) 11:05:59 145.950 - 145.970 MHz USB
Saudisat 1A 17 Apr 11:06:11 11:10:07 31° 113° (ESE) 11:14:04 436.775 MHz
Oscar 11 17 Apr 11:15:22 11:19:30 43° 287° (WNW) 11:23:37 145.825 FM, Beacon 2401.500 USB
Sapphire 17 Apr 11:25:19 11:30:37 56° 248° (WSW) 11:35:52 437.095 MHz 1200 baud AX-25 AFSK
PANSAT 17 Apr 11:42:49 11:46:14 30° 180° (S) 11:49:38 not established
HO-68 17 Apr 12:03:12 12:07:43 18° 301° (WNW) 12:12:15 435.675 MHz FM
PCSat 17 Apr 12:11:38 12:15:27 20° 255° (WSW) 12:19:14 145.825 MHz
KITSAT 1 17 Apr 12:19:18 12:27:03 46° 55° (NE) 12:34:43 435.175 FM
FUNcube-1 17 Apr 12:35:24 12:38:18 18° 291° (WNW) 12:41:13 145.950 - 145.970 MHz USB
Oscar 19 17 Apr 12:37:45 12:40:39 15° 64° (ENE) 12:43:34 437.125 CW, 437.150 USB
Oscar 16 17 Apr 12:44:48 12:48:24 20° 66° (ENE) 12:52:02 437.025 USB, Beacon 2401.1428
Saudisat 1A 17 Apr 12:46:06 12:49:43 24° 308° (NW) 12:53:21 436.775 MHz
RS-15 17 Apr 13:10:00 13:13:58 12° 12° (NNE) 13:17:56 29.354 - 29.394 USB, Beacon 29.352 USB
Uribyol 2 17 Apr 13:15:41 13:19:25 21° 66° (ENE) 13:23:08 436.500 FM
PANSAT 17 Apr 13:23:00 13:26:01 22° 192° (SSW) 13:29:03 not established
AO-27 17 Apr 13:53:14 13:58:11 46° 72° (ENE) 14:03:08 436.795 MHz FM
ITAMSAT 1 17 Apr 14:04:23 14:09:28 59° 74° (ENE) 14:14:34 435.822 SSB
Oscar 19 17 Apr 14:14:28 14:19:29 56° 259° (W) 14:24:33 437.125 CW, 437.150 USB
KITSAT 1 17 Apr 14:15:04 14:22:11 36° 253° (WSW) 14:29:17 435.175 FM
Oscar 16 17 Apr 14:22:33 14:27:24 43° 261° (W) 14:32:18 437.025 USB, Beacon 2401.1428
TMSAT-1 17 Apr 14:23:59 14:27:35 19° 66° (ENE) 14:31:10 436.925 FM
AO-Echo 17 Apr 14:33:59 14:39:17 89° 257° (WSW) 14:44:29 ?
ISS 17 Apr 14:47:17 14:48:48 13° 127° (SE) 14:50:20 145.800 FM
Uribyol 2 17 Apr 14:53:42 14:58:33 42° 261° (W) 15:03:26 436.500 FM
Uosat F 17 Apr 14:54:11 14:56:12 12° 63° (ENE) 14:58:13 435.120 FM
SO-50 17 Apr 14:56:55 14:58:56 13° 108° (ESE) 15:00:58 436.795 FM
Gurwin Techsat 1B 17 Apr 15:12:05 15:17:23 80° 76° (ENE) 15:22:43 435.225 FM
RS-15 17 Apr 15:21:36 15:31:17 34° 45° (NE) 15:41:05 29.354 - 29.394 USB, Beacon 29.352 USB
JAS-1B 17 Apr 15:29:32 15:37:34 49° 71° (ENE) 15:44:21 435.800 - 435.900 CW/SSB
AO-27 17 Apr 15:34:27 15:37:53 18° 266° (W) 15:41:19 436.795 MHz FM
OPAL 17 Apr 15:37:27 15:42:40 69° 104° (ESE) 15:47:51 ?
ITAMSAT 1 17 Apr 15:46:45 15:49:18 14° 268° (W) 15:51:51 435.822 SSB
AO-7 17 Apr 15:56:42 16:04:32 49° 66° (ENE) 16:12:22 29.400 - 29.500 MHz
TMSAT-1 17 Apr 16:02:01 16:07:06 48° 260° (W) 16:12:12 436.925 FM
ISS 17 Apr 16:21:57 16:25:12 50° 321° (NW) 16:28:29 145.800 FM
Uosat F 17 Apr 16:29:22 16:34:22 68° 258° (WSW) 16:39:23 435.120 FM
SO-50 17 Apr 16:34:38 16:39:00 53° 302° (WNW) 16:43:25 436.795 FM
OPAL 17 Apr 17:18:24 17:20:56 14° 299° (WNW) 17:23:27 ?
JAS-1B 17 Apr 17:20:50 17:28:06 31° 262° (W) 17:34:28 435.800 - 435.900 CW/SSB
Hamsat 17 Apr 17:28:16 17:30:39 15° 68° (ENE) 17:33:02 145.90 MHz
UOSAT-12 17 Apr 17:30:06 17:33:54 27° 111° (ESE) 17:37:47 437.025 FM, 437.400 FM
RS-15 17 Apr 17:33:31 17:44:20 68° 247° (WSW) 17:55:31 29.354 - 29.394 USB, Beacon 29.352 USB
JAS-2 17 Apr 17:48:47 17:50:28 11° 63° (ENE) 17:52:07 435.800 - 435.900 CW/SSB, 435.910 FM
AO-7 17 Apr 17:50:13 17:57:25 33° 262° (W) 18:04:40 29.400 - 29.500 MHz
SO-67 17 Apr 18:41:59 18:44:04 15° 70° (ENE) 18:46:09 435.3500 MHz FM
Hamsat 17 Apr 19:02:23 19:06:17 38° 262° (W) 19:10:13 145.90 MHz
UOSAT-12 17 Apr 19:10:02 19:13:57 28° 307° (NW) 19:17:57 437.025 FM, 437.400 FM
JAS-2 17 Apr 19:28:51 19:35:01 83° 257° (WSW) 19:40:32 435.800 - 435.900 CW/SSB, 435.910 FM
Saudisat 1A 17 Apr 19:37:25 19:39:16 12° 46° (NE) 19:41:06 436.775 MHz
STRAND 1 17 Apr 19:50:56 19:56:02 79° 285° (WNW) 20:01:06 ?
RS-15 17 Apr 19:53:14 19:54:36 10° 263° (W) 19:55:59 29.354 - 29.394 USB, Beacon 29.352 USB
SO-67 17 Apr 20:14:08 20:17:00 24° 264° (W) 20:19:53 435.3500 MHz FM
